This demonstration page uses our WeatherBlox Daily Observations layout. Learn more.

Left ArrowRight Arrow

Hourly Observations for May 31, 2015

Temp ( °F °C ) Dew Point ( °F °C ) Humidity (%) Winds ( mph kmh ) Pressure ( in mb ) Visibility ( mi km ) Precip ( " mm )
12:53 am 00:53 Clear 52 11.1 40 4.4 64 64 E 5 7 30.20 1023 10 16 0.00 0.00
1:53 am 01:53 Clear 50 10 40 4.4 68 68 Calm 30.20 1023 10 16 0.00 0.00
2:53 am 02:53 Clear 47 8.3 40 4.4 77 77 Calm 30.21 1023 10 16 0.00 0.00
3:53 am 03:53 Clear 47 8.3 40 4.4 77 77 E 5 7 30.19 1023 10 16 0.00 0.00
4:53 am 04:53 Clear 45 7.2 40 4.4 83 83 E 3 6 30.17 1022 10 16 0.00 0.00
5:53 am 05:53 Clear 50 10 44 6.7 80 80 SE 9 15 30.16 1021 10 16 0.00 0.00
6:53 am 06:53 Sunny 50 10 46 7.8 86 86 SSE 9 15 30.16 1022 10 16 0.00 0.00
7:53 am 07:53 Sunny 53 11.7 48 8.9 83 83 SSE 13 20 30.16 1022 10 16 0.00 0.00
8:53 am 08:53 Sunny 57 13.9 51 10.6 81 81 SE 14 22 30.16 1021 10 16 0.00 0.00
9:53 am 09:53 Sunny 61 16.1 52 11.1 72 72 SE 14 22 30.15 1021 10 16 0.00 0.00
10:53 am 10:53 Sunny 65 18.3 51 10.6 61 61 SSE 9 15 30.14 1021 10 16 0.00 0.00
11:53 am 11:53 Sunny 65 18.3 49 9.4 56 56 SSE 10 17 30.14 1021 10 16 0.00 0.00
12:53 pm 12:53 Partly Cloudy 68 20 51 10.6 55 55 SE 12 19 30.12 1020 10 16 0.00 0.00
1:53 pm 13:53 Mostly Sunny 69 20.6 51 10.6 53 53 S 10 17 30.11 1020 10 16 0.00 0.00
2:53 pm 14:53 Sunny 71 21.7 51 10.6 49 49 SE 15 24 30.09 1019 10 16 0.00 0.00
3:53 pm 15:53 Sunny 71 21.7 49 9.4 46 46 S 13 20 30.06 1018 10 16 0.00 0.00
4:53 pm 16:53 Sunny 70 21.1 49 9.4 47 47 S 13 20 30.05 1018 10 16 0.00 0.00
5:53 pm 17:53 Sunny 71 21.7 51 10.6 49 49 SE 13 20 30.04 1017 10 16 0.00 0.00
6:53 pm 18:53 Mostly Sunny 70 21.1 51 10.6 51 51 S 12 19 30.04 1017 10 16 0.00 0.00
7:53 pm 19:53 Sunny 68 20 51 10.6 55 55 SSE 8 13 30.06 1018 10 16 0.00 0.00
8:53 pm 20:53 Mostly Sunny 66 18.9 51 10.6 59 59 S 8 13 30.08 1019 10 16 0.00 0.00
9:53 pm 21:53 Clear 63 17.2 52 11.1 68 68 SE 8 13 30.07 1018 10 16 0.00 0.00
10:53 pm 22:53 Clear 62 16.7 50 10 65 65 SE 14 22 30.07 1018 10 16 0.00 0.00
11:53 pm 23:53 Cloudy 61 16.1 50 10 67 67 SE 10 17 30.09 1019 10 16 0.00 0.00

Powered by AerisWeather